Location: Recife
(8.0585°S, 34.8848°W)
Time: 13:25:52
(UTC-03:00)

Tiros 1 - Pass Details

Date: 16 April 2026
Orbit: 618 x 648 km, 48.4° (Epoch: 11 May)

Event Time Altitude Azimuth Distance (km) Brightness Sun altitude
Rises 05:46:59 0° 208° (SSW) 2,900 10.1 5.3°
Reaches altitude 10° 05:49:26 10° 200° (SSW) 1,987 9.4 5.9°
Maximum altitude 05:53:42 39° 131° (SE) 934 8.6 6.9°
Drops below altitude 10° 05:57:55 10° 62° (ENE) 1,970 11.5 7.9°
Sets 06:00:20 0° 54° (NE) 2,872 11.8 8.5°
